This is the latest recevied weather packets stored in our database for station/object IT9CNT. If no packets are shown the sender has not sent any weather packets the latest 1 day(s).
| Time | Temp. | Humidity | Pressure | Rain* | Wind** | Luminosity | Snow |
|---|---|---|---|---|---|---|---|
| 1778049783 | 17.78° C | 77% | 1012.1 hPa | 0 mm | 3.13 m/s, 96° | - | - |
| 1778049723 | 17.78° C | 77% | 1012.1 hPa | 0 mm | 2.68 m/s, 97° | - | - |
| 1778049663 | 17.78° C | 77% | 1012.2 hPa | 0 mm | 2.68 m/s, 96° | - | - |
| 1778049603 | 17.78° C | 77% | 1012 hPa | 0 mm | 2.68 m/s, 94° | - | - |
| 1778049543 | 17.78° C | 77% | 1012.1 hPa | 0 mm | 2.68 m/s, 92° | - | - |
| 1778049483 | 17.78° C | 76% | 1012.2 hPa | 0 mm | 2.24 m/s, 90° | - | - |
| 1778049423 | 17.78° C | 76% | 1012 hPa | 0 mm | 2.24 m/s, 86° | - | - |
| 1778049363 | 17.78° C | 77% | 1012.1 hPa | 0 mm | 2.24 m/s, 88° | - | - |
| 1778049303 | 17.78° C | 77% | 1012.2 hPa | 0 mm | 2.24 m/s, 85° | - | - |
| 1778049243 | 17.78° C | 77% | 1011.8 hPa | 0 mm | 2.24 m/s, 83° | - | - |
| 1778049183 | 17.78° C | 77% | 1011.9 hPa | 0 mm | 2.24 m/s, 84° | - | - |
| 1778049123 | 17.22° C | 77% | 1012.3 hPa | 0 mm | 2.24 m/s, 83° | - | - |
| 1778049063 | 17.22° C | 77% | 1012 hPa | 0 mm | 2.24 m/s, 85° | - | - |
| 1778049003 | 17.78° C | 77% | 1012 hPa | 0 mm | 2.24 m/s, 83° | - | - |
| 1778048943 | 17.78° C | 77% | 1012.1 hPa | 0 mm | 2.24 m/s, 80° | - | - |
| 1778048883 | 17.78° C | 77% | 1011.8 hPa | 0 mm | 2.24 m/s, 79° | - | - |
| 1778048823 | 17.78° C | 77% | 1011.9 hPa | 0 mm | 2.24 m/s, 75° | - | - |
| 1778048763 | 17.78° C | 77% | 1012 hPa | 0 mm | 2.68 m/s, 74° | - | - |
| 1778048703 | 17.78° C | 78% | 1011.9 hPa | 0 mm | 2.68 m/s, 67° | - | - |
| 1778048643 | 17.22° C | 77% | 1011.6 hPa | 0 mm | 2.68 m/s, 69° | - | - |
| 1778048583 | 17.78° C | 77% | 1011.9 hPa | 0 mm | 3.13 m/s, 72° | - | - |
| 1778048523 | 17.22° C | 77% | 1011.8 hPa | 0 mm | 3.13 m/s, 71° | - | - |
| 1778048463 | 17.22° C | 78% | 1011.9 hPa | 0 mm | 3.13 m/s, 70° | - | - |
| 1778048403 | 17.22° C | 78% | 1012 hPa | 0 mm | 3.58 m/s, 71° | - | - |
| 1778048343 | 17.22° C | 78% | 1011.8 hPa | 0 mm | 3.58 m/s, 76° | - | - |
* Rain latest hour (hover to see other rain measurements)
** Current wind speed in m/s (hover to see current wind gust speed)